COSMOS 535

Satellite information

Favourite Embed

Satellite Type and Status

PAYLOADIN ORBIT

Key statistics

Satellite COSMOS 535 at a glance.

Uptime

19407

Days in orbit

Revolutions

≈ 12.6

Per day

Orbit

LEO

Low Earth Orbit

Inclination

74.0

Latest

Satellite identification and parameters

Extended collection of information and parameters for COSMOS 535.

Object identification

Identified? True

Debris? False

Object name: COSMOS 535

International designator: 1972-087H

Object number (NORAD): 6270

Object ID (CCSDS): 6270

Country: COMMONWEALTH OF INDEPENDENT STATES (CIS)

Current information (Y/N): Y

RCS size: MEDIUM

Orbital parameters

Period: 114.345 minutes

Inclination: 74.0334 deg

SMA: 7803.765 km

Apoapsis: 1468.528 km

Periapsis: 1382.732 km

RAAN: 136.0111 deg

Eccentricy: 0.00549709

Argument of periapsis: 297.1703 deg

Mean anomaly: 180.4895 deg

Mean motion: 12.59350136 rev/day

Mean motion (dot): -0.00000031 rev/day2

B* drag term: -0.000081158785 1/REarth

Two-line elements (TLE)

Creation date: Dec. 19, 2025, 2:08 a.m.

Reference frame: TEME

Reference center: EARTH

Epoch: Dec. 18, 2025, 9:28 p.m. UTC

TLE line 0: 0 COSMOS 535

TLE line 1: 1 06270U 72087H 25352.89448784 -.00000031 00000-0 -81159-4 0 9992

TLE line 2: 2 06270 74.0334 136.0111 0054971 297.1703 180.4895 12.59350136442332

Live tracking on map

Real-time ground track for satellite COSMOS 535.

In-orbit conjunctions

A list of the most updated potential collisions computed for object COSMOS 535.

Target Orbit TCA Probability of collision Miss distance Type
COSMOS 1795 LEO 2025-04-28 04:05:46 0.0003195953 142.0 (m) PAYLOAD

Associated space launch

Military communications satellites

COSMOS 535 was lifted into orbit during the mission ‘Kosmos-3M | Strela-1M 33-40’, on board a Kosmos-3M space rocket.

The launch took place on Nov. 1, 1972, 2:08 a.m. from 132/2.

For more information about the launch, click the button.

Launch to space Kosmos-3M | Strela-1M 33-40
Kosmos-3M | Strela-1M 33-40

Agency: N/A

Status: Launch Successful

Launch date: Nov. 1, 1972, 2:08 a.m. UTC

Rocket: Kosmos-3M

Launch pad: 132/2

Location: Plesetsk Cosmodrome, Russian Federation

...

Latest news about this satellite

There are no fresh news available about this satellite. Check back as we update our databases every day.


Newsletter sign-up

Weekly statistics, charts and insights to help you stay on top of the space industry.